Location: Utrecht
(52.0830°N, 5.1330°E)
Time: 13:15:24
(UTC+01:00)

Daily predictions for brighter satellites

Satellite Brightness Start Highest point End
(mag) Time Altitude Azimuth Time Altitude Azimuth Time Altitude Azimuth
NOSS 3-2 (A) 3.6 17:07:46 10° SW 17:13:54 89° SE 17:20:48 10° NE
ERS-2 3.6 17:13:06 10° ESE 17:15:36 17° ENE 17:18:06 10° NNE
Cosmos 1850 Rocket 4.2 17:11:39 10° S 17:16:41 54° ESE 17:21:45 10° NNE
Ariane Rocket 3.2 17:12:23 10° SE 17:17:16 49° ENE 17:22:10 10° N
Tsikada Rocket 4.1 17:11:33 10° N 17:17:36 53° ENE 17:23:36 10° SSE
Cosmos 676 Rocket 4.4 17:13:08 10° SW 17:18:25 69° WNW 17:23:42 10° NNE
Cosmos 841 Rocket 4.0 17:13:50 10° NNW 17:18:47 39° NE 17:23:43 10° ESE
Cosmos 1461 4.4 17:14:42 10° NW 17:19:10 48° SW 17:23:42 10° SSE
Cosmos 1869 3.4 17:15:30 10° SSW 17:19:26 82° WNW 17:23:24 10° N
Cosmos 2061 Rocket 4.1 17:13:19 10° S 17:19:33 67° E 17:25:54 10° NNE
Cosmos 2227 Rocket 4.3 17:17:13 10° NW 17:20:21 15° NNW 17:23:30 10° NNE
Cosmos 2208 Rocket 4.3 17:16:50 10° NNW 17:22:02 74° WSW 17:27:16 10° SSE
Cosmos 2278 Rocket 3.6 17:19:08 10° SE 17:22:55 19° E 17:26:42 10° ENE
USA 161 0.8 17:21:16 10° NNE 17:23:03 43° ESE 17:24:56 10° S
Cosmos 2263 Rocket 2.8 17:18:52 10° SW 17:24:25 57° NW 17:29:59 10° NNE
IDEFIX/ARIANE 42P 3.3 17:21:04 10° S 17:26:14 60° W 17:31:25 10° NNW
Cosmos 2016 Rocket 4.1 17:22:41 10° S 17:28:56 65° E 17:35:08 10° NNE
SL-27 R/B 3.5 17:27:02 10° N 17:29:47 23° NE 17:32:31 10° ESE
Lacrosse 5 1.9 17:24:53 10° WSW 17:29:58 87° SSE 17:35:01 10° ENE
Cosmos 1741 Rocket 4.1 17:26:44 10° SSW 17:32:01 68° ESE 17:37:20 10° NNE
CENTAUR R/B 3.0 17:26:26 10° SSW 17:32:17 47° ESE 17:38:58 10° NE
Cosmos 44 Rocket 4.1 17:28:43 10° NNW 17:33:03 32° NNE 17:37:26 10° E
CORIOLIS 4.3 17:29:35 10° SE 17:34:53 55° ENE 17:40:12 10° N
DNEPR-1 R/B 3.5 17:31:48 10° SSW 17:36:05 66° SE 17:40:18 10° NE
Cosmos 1346 2.3 17:37:42 10° S 17:39:56 59° E 17:42:12 10° NNE
Cosmos 1346 Rocket 3.8 17:37:56 10° SSW 17:41:43 47° WNW 17:45:33 10° N
Cosmos 371 Rocket 4.3 17:37:06 10° NNW 17:41:48 52° WSW 17:46:27 10° S
IRAS Rocket 4.4 17:37:27 10° SSE 17:43:00 79° WSW 17:48:33 10° NNW
Cosmos 1633 3.8 17:41:22 10° NNE 17:44:18 22° ENE 17:47:14 10° ESE
Cosmos 304 Rocket 3.7 17:40:18 10° NNW 17:45:08 69° ENE 17:49:55 10° SSE
SPOT 3 Rocket 4.2 17:41:20 10° ESE 17:45:56 32° ENE 17:50:32 10° N
CZ-4 R/B 1.4 17:42:49 10° SSE 17:46:35 52° ENE 17:50:21 10° N
COSMO-SKYMED 1 4.0 17:44:53 11° NE 17:47:43 18° E 17:50:45 10° SE
CZ-2C R/B 4.4 17:45:47 10° NNE 17:49:48 31° E 17:53:49 10° SSE
Cosmos 2173 Rocket 4.3 17:44:16 10° SSW 17:50:21 71° WNW 17:56:33 10° N
Cosmos 1933 3.3 17:47:10 10° S 17:51:12 71° E 17:55:13 10° NNE
Cosmos 2297 Rocket 4.3 17:49:48 10° NW 17:52:21 13° NNW 17:54:53 10° NNE
Meteor 1-25 Rocket 4.4 17:46:49 10° N 17:52:36 55° ENE 17:58:17 10° SSE
YAOGAN 1 2.7 17:50:37 10° SE 17:54:48 50° ENE 17:59:00 10° N
Meteor 1-20 Rocket 4.3 17:50:00 10° N 17:55:29 51° ENE 18:00:50 10° SSE
Cosmos 2082 Rocket 2.5 17:50:54 10° NNW 17:56:25 47° NE 18:01:52 10° SE
Cosmos 1140 Rocket 4.5 17:52:32 10° SW 17:57:33 46° WNW 18:02:34 10° NNE
ATLAS CENTAUR R/B 3.4 17:57:00 10° NW 17:58:50 13° N 18:00:42 10° NNE
Meteor 1-28 Rocket 3.6 17:57:44 10° NNE 18:01:16 39° E 18:04:46 10° SSE
Cosmos 972 Rocket 4.4 17:56:35 10° NNW 18:01:33 63° WSW 18:06:21 10° S
CSL-04 Rocket 4.0 17:58:56 10° S 18:04:12 68° WSW 18:09:35 10° NNW
Cosmos 1484 Rocket 3.1 18:03:12 10° S 18:07:04 72° WSW 18:11:02 10° NNW
Cosmos 44 3.4 18:02:58 10° NW 18:07:23 47° NE 18:11:17 14° ESE
Meteor 2-10 Rocket 3.9 18:04:10 10° SSW 18:09:25 69° WNW 18:14:56 10° N
EO 1 Del DPAF 4.3 18:09:31 22° ENE 18:10:28 25° E 18:13:38 10° SSE
Cosmos 1606 3.7 18:07:57 10° SE 18:11:03 24° E 18:11:32 24° ENE
Landsat 4 4.2 18:09:16 15° NE 18:11:59 37° E 18:15:32 10° SSE
METEOR-M 4.1 18:10:22 10° SSE 18:15:39 68° ENE 18:20:59 10° N
Cosmos 1703 Rocket 4.1 18:12:11 10° SSE 18:16:16 35° E 18:19:40 14° NNE
ATLAS 3B R/B 3.6 18:10:51 10° W 18:17:33 41° NNW 18:22:58 14° NE
Cosmos 2233 Rocket 3.9 18:11:28 10° S 18:17:39 69° E 18:23:50 10° NNE
Cosmos 1437 2.6 18:16:47 10° S 18:19:58 88° ESE 18:22:40 14° NNE
Okean 2 Rocket 3.6 18:16:20 10° N 18:20:31 36° ENE 18:24:42 10° SE
MONITOR-E 4.2 18:18:49 10° SSE 18:21:47 50° ENE 18:24:46 10° N
ALOS 2.4 18:19:35 10° SE 18:24:05 49° ENE 18:28:36 10° N
Cosmos 1782 3.4 18:21:32 10° SSE 18:25:11 34° E 18:26:13 29° ENE
BREEZE-M R/B 4.3 18:23:36 10° WSW 18:25:49 23° SSW 18:28:51 10° SE
Cosmos 1763 Rocket 4.2 18:21:17 10° NNW 18:26:27 58° WSW 18:31:29 10° S
Cosmos 1602 4.5 18:23:33 10° N 18:26:34 30° ENE 18:26:34 30° ENE
CZ-4C R/B 2.9 18:22:26 10° NW 18:29:03 58° NE 18:34:40 19° ESE
Cosmos 1844 Rocket 3.0 18:26:46 10° SW 18:32:24 68° NW 18:37:34 12° NNE
USA 234 4.1 18:30:25 23° E 18:33:13 31° SE 18:38:53 10° SSW
SMAP 4.3 18:29:14 10° S 18:33:41 45° W 18:38:11 10° NNW
Cosmos 1908 Rocket 3.7 18:31:34 10° NNW 18:35:56 74° W 18:40:14 10° S
SKYMED 2 3.7 18:33:29 21° NNE 18:36:08 48° E 18:40:21 10° S
Cosmos 1340 3.9 18:32:33 10° SW 18:36:09 41° WNW 18:39:46 10° N
SL-23 DEB 4.3 18:42:42 10° W 18:46:30 79° S 18:49:03 32° ESE
Sich 1 Rocket 3.8 18:42:31 10° NNW 18:46:56 70° W 18:51:21 10° S
ERS-2 2.9 18:45:19 10° S 18:48:56 54° WSW 18:52:34 10° NNW
Cosmos 1503 Rocket 4.4 18:45:47 10° S 18:50:40 40° ESE 18:51:14 39° E
Meteor 1-11 Rocket 3.8 18:46:19 10° N 18:52:09 56° ENE 18:57:50 10° SSE
FENGYUN 3A 3.6 18:47:17 10° SSE 18:52:44 83° ENE 18:58:10 10° NNW
COSMOS 2455 2.8 18:46:46 10° SW 18:52:48 87° NW 18:56:32 25° NE
Resurs 01 Rocket 4.0 18:56:10 10° N 18:56:10 10° N 18:56:15 10° N
Cosmos 1833 Rocket 2.8 18:49:35 10° NNW 18:55:14 78° WSW 19:00:51 10° SSE
NOSS 3-2 (C) 4.3 18:49:39 10° W 18:55:43 46° NNW 19:00:04 22° NE
Cosmos 540 Rocket 3.6 18:51:28 10° NNW 18:56:40 77° WSW 19:01:49 10° SSE
Timation 1 Rocket 4.3 18:50:49 10° SSW 18:56:51 89° WNW 19:00:47 23° NNE
Cosmos 1891 Rocket 4.5 18:51:57 10° SSE 18:57:54 54° E 19:03:48 10° NNE
Cosmos 2297 4.0 18:54:55 10° S 19:00:14 42° ESE 19:00:38 41° E
Cosmos 1844 4.3 18:55:17 10° SW 19:01:00 58° NW 19:05:26 17° NNE
SL-27 R/B 4.2 19:02:01 10° NW 19:05:02 31° WSW 19:08:01 10° S
COSMOS 2487 4.5 19:02:31 10° NNW 19:03:40 19° N 19:03:40 19° N
Cosmos 2278 Rocket 2.1 19:00:33 10° SSW 19:06:15 89° NW 19:09:15 29° NNE
Cosmos 2227 Rocket 4.4 19:05:18 10° NNW 19:07:07 11° N 19:08:06 11° NNE
Cosmos 2263 Rocket 4.3 19:05:45 10° WNW 19:09:37 18° NNW 19:13:28 10° NNE
Nadezhda 4 Rocket 3.8 19:04:35 10° N 19:10:43 64° ENE 19:16:47 10° SSE
Timation 2 Rocket 4.0 19:04:08 10° NNW 19:11:01 71° NE 19:14:07 34° SE
Cosmos 1072 Rocket 4.4 19:05:18 10° S 19:11:32 82° E 19:17:54 10° NNE
Cosmos 1486 Rocket 4.0 19:06:57 10° SSW 19:12:12 83° WNW 19:14:47 31° NNE
Lacrosse 5 2.3 19:08:21 10° W 19:13:18 50° N 19:14:13 44° NNE
Okean 1-7 2.9 19:10:02 10° S 19:14:25 89° ESE 19:15:27 53° N
Cosmos 44 Rocket 3.4 19:10:08 10° NW 19:14:58 71° SW 19:16:52 37° SSE
Cosmos 2034 Rocket 3.9 19:11:45 10° S 19:18:02 66° E 19:24:20 10° NNE
Cosmos 1633 4.2 19:16:00 10° NNW 19:19:21 35° W 19:22:43 10° SSW
CZ-4 R/B 4.3 19:19:22 10° SW 19:21:57 17° W 19:24:33 10° NW
CENTAUR R/B 3.1 19:16:32 10° WSW 19:22:52 59° NW 19:26:28 30° NNE
COSMO-SKYMED 1 3.0 19:22:07 28° N 19:24:16 61° WNW 19:28:33 10° SSW
SPOT 3 Rocket 4.5 19:20:08 10° S 19:25:10 48° W 19:30:14 10° NNW
Cosmos 1092 Rocket 3.9 19:20:22 10° N 19:26:28 60° ENE 19:26:54 59° E
Cosmos 292 Rocket 4.1 19:23:41 10° NNW 19:28:23 62° WSW 19:30:34 31° S
Cosmos 1354 Rocket 3.8 19:23:07 10° SSW 19:28:24 76° ESE 19:28:28 76° ESE
Meteor 2-6 Rocket 4.2 19:31:53 10° SSW 19:37:20 77° WNW 19:40:56 23° N
Cosmos 2297 Rocket 4.4 19:36:54 10° N 19:38:50 12° N 19:38:50 12° N
ATLAS CENTAUR R/B 3.9 19:37:05 10° NNW 19:37:17 11° NNW 19:37:17 11° NNW
Cosmos 2082 Rocket 3.5 19:35:12 10° NW 19:40:28 39° WSW 19:45:40 10° S
Cosmos 2221 Rocket 4.2 19:39:09 10° SSW 19:43:29 54° WNW 19:43:41 53° WNW
Cosmos 1606 4.4 19:43:16 10° SW 19:46:39 32° WNW 19:46:39 32° WNW
Cosmos 1464 Rocket 4.3 19:41:03 10° SSW 19:47:08 64° WNW 19:53:17 10° N
ALOS 4.4 19:57:55 10° SSW 20:01:46 25° W 20:05:40 10° NW
Meteor 1-27 Rocket 3.9 19:57:40 10° SSW 20:03:34 75° W 20:03:34 75° W
ATLAS 3B R/B 3.8 20:03:50 10° WNW 20:09:59 31° N 20:10:13 31° N
USA 234 3.3 20:17:47 67° SSW 20:17:47 67° SSW 20:23:27 10° WSW
CZ-4C R/B 3.4 20:11:02 10° NW 20:17:48 53° SW 20:19:54 42° S
COSMOS 2455 4.3 20:34:17 10° W 20:39:32 30° NNW 20:39:42 30° NNW
Cosmos 2278 Rocket 4.0 20:46:29 10° W 20:51:07 25° NW 20:51:07 25° NW
Lacrosse 5 4.2 20:51:53 10° WNW 20:53:25 19° WNW 20:53:25 19° WNW
CENTAUR R/B 4.1 21:08:45 10° WNW 21:13:39 33° NNW 21:13:39 33° NNW
